TimeCST,TemperatureF,Dew PointF,Humidity,Sea Level PressureIn,VisibilityMPH,Wind Direction,Wind SpeedMPH,Gust SpeedMPH,PrecipitationIn,Events,Conditions,WindDirDegrees,DateUTC
12:52 AM,28.9,23.0,78,30.28,10.0,SSW,3.5,-,N/A,,Clear,210,2013-01-26 06:52:00
1:52 AM,28.9,23.0,78,30.27,10.0,SE,3.5,-,N/A,,Clear,130,2013-01-26 07:52:00
2:52 AM,30.0,24.1,79,30.26,10.0,SSE,5.8,-,N/A,,Clear,150,2013-01-26 08:52:00
3:52 AM,30.9,24.1,76,30.27,10.0,South,3.5,-,N/A,,Clear,170,2013-01-26 09:52:00
4:52 AM,30.9,24.1,76,30.27,10.0,SSE,6.9,-,N/A,,Clear,150,2013-01-26 10:52:00
5:52 AM,30.9,25.0,79,30.27,9.0,SE,6.9,-,N/A,,Clear,140,2013-01-26 11:52:00
6:52 AM,32.0,24.1,73,30.30,10.0,Calm,Calm,-,N/A,,Clear,0,2013-01-26 12:52:00
7:52 AM,33.1,25.0,72,30.29,9.0,SE,5.8,-,N/A,,Clear,130,2013-01-26 13:52:00
8:52 AM,37.9,25.0,60,30.30,10.0,ESE,4.6,-,N/A,,Clear,120,2013-01-26 14:52:00
9:52 AM,44.1,25.0,47,30.30,10.0,SE,9.2,-,N/A,,Clear,140,2013-01-26 15:52:00
10:52 AM,50.0,23.0,35,30.29,10.0,SE,15.0,-,N/A,,Clear,130,2013-01-26 16:52:00
11:52 AM,52.0,21.0,30,30.28,10.0,SE,13.8,-,N/A,,Clear,130,2013-01-26 17:52:00
12:52 PM,55.0,21.9,28,30.24,10.0,SSE,11.5,-,N/A,,Clear,150,2013-01-26 18:52:00
1:52 PM,57.0,21.9,26,30.21,10.0,SE,16.1,-,N/A,,Clear,130,2013-01-26 19:52:00
2:52 PM,57.9,21.9,25,30.19,10.0,SE,16.1,-,N/A,,Clear,140,2013-01-26 20:52:00
3:52 PM,57.0,21.9,26,30.19,10.0,SSE,10.4,-,N/A,,Clear,150,2013-01-26 21:52:00
4:52 PM,54.0,21.9,29,30.19,10.0,SSE,11.5,-,N/A,,Clear,150,2013-01-26 22:52:00
5:52 PM,48.0,21.9,36,30.19,10.0,SE,9.2,-,N/A,,Partly Cloudy,140,2013-01-26 23:52:00
6:52 PM,48.0,23.0,37,30.19,10.0,SE,10.4,-,N/A,,Mostly Cloudy,140,2013-01-27 00:52:00
7:52 PM,50.0,23.0,35,30.18,10.0,SE,16.1,-,N/A,,Overcast,140,2013-01-27 01:52:00
8:52 PM,46.9,24.1,41,30.17,10.0,SSE,13.8,25.3,N/A,,Partly Cloudy,160,2013-01-27 02:52:00
9:52 PM,48.0,24.1,39,30.17,10.0,SSE,15.0,32.2,N/A,,Overcast,150,2013-01-27 03:52:00
10:52 PM,46.9,23.0,39,30.15,10.0,SSE,18.4,25.3,N/A,,Clear,150,2013-01-27 04:52:00
11:52 PM,46.0,23.0,40,30.14,10.0,SE,13.8,-,N/A,,Mostly Cloudy,140,2013-01-27 05:52:00